Hourly Data Report for September 05, 2017

All times are specified in Local Standard Time (LST). Add 1 hour to adjust for Daylight Saving Time where and when it is observed.

KUGAARUK CLIMATE
NUNAVUT

68°32'15.060" N
89°47'47.020" W
15.80 m
2303094
71407
NBB

Download Data

Hourly Data (September 2017)
Hourly Data Report for September 5, 2017
Temp Definition
°C
Dew Point Temp Definition
°C
Rel Hum Definition
%
Wind Dir Definition
10's deg

Wind Spd Definition
km/h
Visibility Definition
km
Stn Press Definition
kPa
Hmdx Definition


Wind Chill Definition


Weather Definition


TIME
00:00 1.7 0.4 91 36 10   101.45     LegendNANA
01:00 1.5 0.3 92 1 6   101.45     LegendNANA
02:00 1.5 0.3 92 1 6   101.45     LegendNANA
03:00 0.8 0.0 95 1 8   101.46     LegendNANA
04:00 0.3 -0.4 95 2 8   101.45     LegendNANA
05:00 0.1 -0.7 94 3 11   101.47     LegendNANA
06:00 0.0 -1.2 92 5 11   101.47   -4 LegendNANA
07:00 0.4 -1.0 91 1 10   101.48     LegendNANA
08:00 0.4 -1.2 89 1 14   101.49     LegendNANA
09:00 0.9 -0.9 88 1 18   101.50     LegendNANA
10:00 1.3 -1.8 80 1 17   101.51     LegendNANA
11:00 2.0 -1.9 76 1 15   101.55     LegendNANA
12:00 2.1 -2.2 73 2 17   101.58     LegendNANA
13:00 2.9 -2.4 68 2 18   101.59     LegendNANA
14:00 2.5 -3.3 66 2 17   101.60     LegendNANA
15:00 2.5 -2.6 69 1 20   101.61     LegendNANA
16:00 2.2 -4.8 60 1 17   101.63     LegendNANA
17:00 1.1 -2.7 76 1 18   101.65     LegendNANA
18:00 0.0 -2.4 84 1 16   101.68   -5 LegendNANA
19:00 -0.7 -3.3 82 3 15   101.70   -5 LegendNANA
20:00 -0.4 -3.0 83 4 13   101.70   -5 LegendNANA
21:00 -0.5 -2.3 87 1 8   101.73   -3 LegendNANA
22:00 0.1 -3.7 75 36 9   101.71     LegendNANA
23:00 0.0 -3.5 77 12 3   101.70   -1 LegendNANA

Notes on Data Quality.

Legend

  • E = Estimated
  • M = Missing
  • NA = Not Available
  • ‡ = Partner data that is not subject to review by the National Climate Archives
Date modified: